Tracking 28799 objects as of 18-Apr-2024
HD Live streaming from Space Station
objects crossing your sky now

VEP

Track VEP now!
VEP is classified as:


NORAD ID: 22979
Int'l Code: 1994-007B
Perigee: 404.3 km
Apogee: 35,944.2 km
Inclination: 28.8 °
Period: 637.8 minutes
Semi major axis: 24545 km
RCS: 6.9002 m2 (large)
Launch date: February 3, 1994
Source: Japan (JPN)
Launch site: TANEGASHIMA SPACE CENTER (TNSTA)
Your satellite tracking list
Your tracking list is empty




NASA's NSSDC Master Catalog

Two Line Element Set (TLE):
1 22979U 94007B   24108.69640447  .00000132  00000-0  45842-3 0  9996
2 22979  28.8348 295.3206 7239676 209.5957  74.9927  2.25762781248437
Source of the keplerian elements: AFSPC